sat.trackr.live / text

‹ back to catalog

STARLINK-6272

NORAD 56420 · 2023-061AY

PAYLOAD ACTIVE UNKNOWN

§ Identity

Operator
Country
US
Launch date
2023-05-04
Launch site
AFETR
Launch vehicle
Mass (kg)
RCS (m²)

Purposes: comms

External: N2YO · Heavens-Above · Gunter

§ Orbital elements

Epoch: 2026-05-24T21:16:46.778592Z

Period
94.28 min
Inclination
43.0024°
Eccentricity
0.0001001
Mean motion
15.27311194 rev/d
Perigee alt
483.2 km
Apogee alt
484.5 km
Semi-major
6,862.0 km
B*
1.7228e-3
RAAN
109.1819°
Arg perigee
34.0165°
Mean anomaly
326.0751°
Rev number
16,861

§ Raw data

STARLINK-62721 56420U 23061AY  26144.88665253  .00047059  00000+0  17228-2 0  99952 56420  43.0024 109.1819 0001001  34.0165 326.0751 15.27311194168612

JSON: /api/v1/satellites/56420 · /tle

For live sub-satellite position, see the globe view (requires WebGL).

§ Visibility from observer

Set your observer location to see the next 7 days of passes ≥ 10°. The values pass through the URL so the page stays shareable.

No JS? Fill the form by hand. The geolocation button needs JavaScript.